Change the Weather History Date:

Monday, August 12, 2013

  Actual Average Record
Temperature  
Mean Temperature 70 °F -  
Max Temperature 77 °F 77 °F 88 °F (1959)
Min Temperature 64 °F 63 °F 51 °F (1968)
Cooling Degree Days 4    
Growing Degree Days 20 (Base 50)    
Moisture  
Dew Point 65 °F    
Average Humidity 83    
Maximum Humidity 96    
Minimum Humidity 66    
Precipitation  
Precipitation 0.00 in - - ()
Sea Level Pressure  
Sea Level Pressure 30.00 in    
Wind  
Wind Speed 4 mph (South)    
Max Wind Speed 13 mph    
Max Gust Speed -    
Visibility 10 miles    
Events      
Averages and records for this station are not official NWS values.
T = Trace of Precipitation, MM = Missing Value Source: NWS Daily Summary

Daily Weather History Graph

Daily Weather History Graph

Search for Another Location

Airport or City:

Trip Planner

Search our weather history database for the weather conditions in past years. The results will help you decide how hot, cold, wet, or windy it might be!

Date:

Astronomy

Aug. 12, 2013 Rise Set
Actual Time 5:51 AM EDT 7:48 PM EDT
Civil Twilight 5:20 AM EDT 8:18 PM EDT
Nautical Twilight 4:44 AM EDT 8:55 PM EDT
Astronomical Twilight 4:04 AM EDT 9:34 PM EDT
Moon 11:43 AM EDT (8/12) 10:33 PM EDT (8/12)
Length of Visible Light 14h 57m
Length of Day
13h 57m
Waxing Crescent, 31% of the Moon is Illuminated
Aug 12
Waxing Crescent
Aug 14
First Quarter
Aug 20
Full
Aug 28
Last Quarter
Sep 5
New

Hourly Weather History & Observations

Time (EDT) Temp. Dew Point Humidity Pressure Visibility Wind Dir Wind Speed Gust Speed Precip Events Conditions
12:53 AM 64.9 °F 62.1 °F 90% 30.04 in 10.0 mi South 3.5 mph - N/A   Clear
1:53 AM 64.9 °F 62.1 °F 90% 30.03 in 10.0 mi Calm Calm - N/A   Clear
2:53 AM 64.9 °F 62.1 °F 90% 30.03 in 10.0 mi Calm Calm - N/A   Mostly Cloudy
3:53 AM 66.0 °F 63.0 °F 90% 30.02 in 10.0 mi SSW 3.5 mph - N/A   Scattered Clouds
4:53 AM 66.0 °F 64.0 °F 93% 30.02 in 10.0 mi South 3.5 mph - N/A   Overcast
5:53 AM 66.9 °F 64.0 °F 90% 30.02 in 10.0 mi SSW 3.5 mph - N/A   Overcast
6:53 AM 68.0 °F 64.0 °F 87% 30.02 in 10.0 mi SSW 4.6 mph - N/A   Overcast
7:53 AM 69.1 °F 64.9 °F 87% 30.02 in 10.0 mi SSW 3.5 mph - N/A   Overcast
8:31 AM 69.8 °F 64.4 °F 83% 30.03 in 10.0 mi Variable 4.6 mph - N/A   Overcast
8:44 AM 69.8 °F 64.4 °F 83% 30.02 in 10.0 mi SSW 3.5 mph - N/A   Overcast
8:53 AM 71.1 °F 66.0 °F 84% 30.02 in 10.0 mi South 3.5 mph - N/A   Mostly Cloudy
9:34 AM 71.6 °F 62.6 °F 73% 30.03 in 10.0 mi SSW 3.5 mph - N/A   Overcast
9:53 AM 71.1 °F 64.9 °F 81% 30.02 in 10.0 mi South 6.9 mph - N/A   Overcast
10:32 AM 69.8 °F 66.2 °F 88% 30.03 in 10.0 mi South 3.5 mph - N/A   Overcast
10:49 AM 69.8 °F 64.4 °F 83% 30.03 in 10.0 mi South 6.9 mph - N/A   Mostly Cloudy
10:53 AM 71.1 °F 66.0 °F 84% 30.03 in 10.0 mi South 6.9 mph - N/A   Mostly Cloudy
11:33 AM 71.6 °F 66.2 °F 83% 30.02 in 10.0 mi SSW 4.6 mph - N/A   Overcast
11:48 AM 71.6 °F 66.2 °F 83% 30.02 in 10.0 mi South 4.6 mph - N/A   Overcast
11:53 AM 72.0 °F 66.9 °F 84% 30.02 in 10.0 mi South 6.9 mph - N/A   Overcast
12:13 PM 71.6 °F 66.2 °F 83% 30.02 in 10.0 mi South 8.1 mph - N/A   Overcast
12:18 PM 71.6 °F 66.2 °F 83% 30.02 in 10.0 mi South 6.9 mph - N/A   Mostly Cloudy
12:53 PM 73.9 °F 64.9 °F 73% 30.00 in 10.0 mi Calm Calm - N/A   Mostly Cloudy
1:53 PM 73.9 °F 66.9 °F 79% 29.99 in 10.0 mi South 8.1 mph - N/A   Partly Cloudy
2:53 PM 73.9 °F 68.0 °F 82% 29.98 in 10.0 mi South 9.2 mph - N/A   Scattered Clouds
3:53 PM 73.9 °F 66.0 °F 76% 29.97 in 10.0 mi South 12.7 mph - N/A   Mostly Cloudy
4:53 PM 75.0 °F 63.0 °F 66% 29.96 in 10.0 mi Variable 3.5 mph - N/A   Mostly Cloudy
5:53 PM 73.9 °F 63.0 °F 68% 29.96 in 10.0 mi SSW 6.9 mph - N/A   Partly Cloudy
6:53 PM 72.0 °F 64.0 °F 76% 29.95 in 10.0 mi South 4.6 mph - N/A   Overcast
7:53 PM 70.0 °F 63.0 °F 78% 29.94 in 10.0 mi South 3.5 mph - N/A   Partly Cloudy
8:53 PM 69.1 °F 63.0 °F 81% 29.95 in 10.0 mi SSW 4.6 mph - N/A   Partly Cloudy
9:53 PM 66.9 °F 64.0 °F 90% 29.95 in 10.0 mi South 3.5 mph - N/A   Clear
10:53 PM 64.9 °F 63.0 °F 93% 29.95 in 8.0 mi NW 3.5 mph - N/A   Clear
11:53 PM 64.0 °F 63.0 °F 96% 29.94 in 3.0 mi South 3.5 mph - N/A   Clear